{"data":{"norad_id":65787,"epoch":"2026-05-25T00:11:47.934816Z","epoch_age_seconds":71459,"freshness":"FRESH","line1":"1 65787U 25217AB  26145.00819369  .00003210  00000+0  44970-3 0  9996","line2":"2 65787  51.9031  50.6674 0001194  98.1849 261.9249 14.79956818 36387","mean_motion":14.79956818,"eccentricity":0.0001194,"inclination_deg":51.9031,"raan_deg":50.6674,"arg_perigee_deg":98.1849,"mean_anomaly_deg":261.9249,"bstar":0.0004497,"rev_number":3638,"period_min":97.300136226002,"perigee_km":628.62373552483,"apogee_km":630.29714979414,"semimajor_km":7007.5974426595,"source":"CELESTRAK","updated_at":"2026-05-25T13:38:05.691649Z"}}